Time,TemperatureF,DewpointF,PressureIn,WindDirection,WindDirectionDegrees,WindSpeedMPH,WindSpeedGustMPH,Humidity,HourlyPrecipIn,Conditions,Clouds,dailyrainin,SoftwareType,DateUTC
2013-09-26 00:09:00,52.6,17.0,29.31,SSE,167,14.0,29.0,24,0.00,,,0.00,weatherlink.com 1.10,2013-09-26 07:09:00,
2013-09-26 00:24:00,52.2,18.0,29.32,SW,215,12.0,27.0,26,0.00,,,0.00,weatherlink.com 1.10,2013-09-26 07:24:00,
2013-09-26 00:39:00,51.8,19.0,29.32,SSW,193,8.0,19.0,27,0.00,,,0.00,weatherlink.com 1.10,2013-09-26 07:39:00,
2013-09-26 00:54:00,51.6,19.0,29.32,West,264,11.0,17.0,28,0.00,,,0.00,weatherlink.com 1.10,2013-09-26 07:54:00,
2013-09-26 01:09:00,51.3,21.0,29.32,West,266,19.0,30.0,30,0.00,,,0.00,weatherlink.com 1.10,2013-09-26 08:09:00,
2013-09-26 01:24:00,51.2,23.0,29.32,SW,215,15.0,28.0,33,0.00,,,0.00,weatherlink.com 1.10,2013-09-26 08:24:00,
2013-09-26 01:39:00,51.0,23.0,29.33,SSW,205,11.0,25.0,34,0.00,,,0.00,weatherlink.com 1.10,2013-09-26 08:39:00,
2013-09-26 01:54:00,51.0,23.0,29.33,West,262,15.0,27.0,33,0.00,,,0.00,weatherlink.com 1.10,2013-09-26 08:54:00,
2013-09-26 02:09:00,51.0,23.0,29.32,South,170,15.0,21.0,34,0.00,,,0.00,weatherlink.com 1.10,2013-09-26 09:09:00,
2013-09-26 02:24:00,50.9,24.0,29.32,SW,227,14.0,23.0,35,0.00,,,0.00,weatherlink.com 1.10,2013-09-26 09:24:00,
2013-09-26 02:39:00,51.1,25.0,29.31,West,273,14.0,26.0,37,0.00,,,0.00,weatherlink.com 1.10,2013-09-26 09:39:00,
2013-09-26 02:54:00,51.2,26.0,29.32,WSW,242,13.0,24.0,38,0.00,,,0.00,weatherlink.com 1.10,2013-09-26 09:54:00,
2013-09-26 03:09:00,51.0,27.0,29.31,SW,221,9.0,25.0,39,0.00,,,0.00,weatherlink.com 1.10,2013-09-26 10:09:00,
2013-09-26 03:24:00,51.3,28.0,29.31,SW,226,12.0,24.0,41,0.00,,,0.00,weatherlink.com 1.10,2013-09-26 10:24:00,
2013-09-26 03:39:00,51.7,28.0,29.31,South,177,5.0,25.0,40,0.00,,,0.00,weatherlink.com 1.10,2013-09-26 10:39:00,
2013-09-26 03:54:00,51.7,28.0,29.31,SSE,165,7.0,28.0,41,0.00,,,0.00,weatherlink.com 1.10,2013-09-26 10:54:00,
2013-09-26 04:09:00,51.7,30.0,29.30,SW,218,11.0,22.0,43,0.00,,,0.00,weatherlink.com 1.10,2013-09-26 11:09:00,
2013-09-26 04:24:00,51.6,29.0,29.31,WSW,256,10.0,19.0,42,0.00,,,0.00,weatherlink.com 1.10,2013-09-26 11:24:00,
2013-09-26 04:39:00,51.7,30.0,29.31,West,273,5.0,18.0,43,0.00,,,0.00,weatherlink.com 1.10,2013-09-26 11:39:00,
2013-09-26 04:54:00,51.8,29.0,29.31,WSW,245,15.0,18.0,41,0.00,,,0.00,weatherlink.com 1.10,2013-09-26 11:54:00,
2013-09-26 05:09:00,51.6,28.0,29.31,WSW,258,17.0,23.0,41,0.00,,,0.00,weatherlink.com 1.10,2013-09-26 12:09:00,
2013-09-26 05:24:00,51.5,29.0,29.31,SW,219,10.0,22.0,42,0.00,,,0.00,weatherlink.com 1.10,2013-09-26 12:24:00,
2013-09-26 05:39:00,51.6,28.0,29.32,WSW,253,12.0,23.0,41,0.00,,,0.00,weatherlink.com 1.10,2013-09-26 12:39:00,
2013-09-26 05:54:00,51.6,28.0,29.31,West,276,3.0,18.0,41,0.00,,,0.00,weatherlink.com 1.10,2013-09-26 12:54:00,
2013-09-26 06:09:00,51.6,28.0,29.32,SW,220,4.0,25.0,41,0.00,,,0.00,weatherlink.com 1.10,2013-09-26 13:09:00,
2013-09-26 06:24:00,51.6,28.0,29.33,SW,221,15.0,25.0,41,0.00,,,0.00,weatherlink.com 1.10,2013-09-26 13:24:00,
2013-09-26 06:39:00,51.6,28.0,29.33,SSE,153,4.0,24.0,41,0.00,,,0.00,weatherlink.com 1.10,2013-09-26 13:39:00,
2013-09-26 06:54:00,51.8,29.0,29.34,WSW,245,6.0,25.0,41,0.00,,,0.00,weatherlink.com 1.10,2013-09-26 13:54:00,
2013-09-26 07:09:00,52.0,29.0,29.34,SSE,156,2.0,19.0,41,0.00,,,0.00,weatherlink.com 1.10,2013-09-26 14:09:00,
2013-09-26 07:24:00,52.1,29.0,29.35,SW,228,5.0,22.0,41,0.00,,,0.00,weatherlink.com 1.10,2013-09-26 14:24:00,
2013-09-26 07:39:00,52.5,29.0,29.35,WNW,283,6.0,25.0,41,0.00,,,0.00,weatherlink.com 1.10,2013-09-26 14:39:00,
2013-09-26 07:54:00,52.8,29.0,29.36,SW,228,8.0,18.0,41,0.00,,,0.00,weatherlink.com 1.10,2013-09-26 14:54:00,
2013-09-26 08:09:00,53.2,29.0,29.36,SE,142,4.0,19.0,40,0.00,,,0.00,weatherlink.com 1.10,2013-09-26 15:09:00,
2013-09-26 08:24:00,53.6,30.0,29.37,SSW,200,6.0,19.0,41,0.00,,,0.00,weatherlink.com 1.10,2013-09-26 15:24:00,
2013-09-26 08:39:00,54.0,31.0,29.38,WSW,251,11.0,18.0,42,0.00,,,0.00,weatherlink.com 1.10,2013-09-26 15:39:00,
2013-09-26 08:54:00,54.3,30.0,29.38,North,11,2.0,15.0,40,0.00,,,0.00,weatherlink.com 1.10,2013-09-26 15:54:00,
2013-09-26 09:10:00,54.6,31.0,29.38,SSE,163,7.0,19.0,41,0.00,,,0.00,weatherlink.com 1.10,2013-09-26 16:10:00,
2013-09-26 09:25:00,55.0,31.0,29.39,SW,218,7.0,18.0,41,0.00,,,0.00,weatherlink.com 1.10,2013-09-26 16:25:00,
2013-09-26 09:40:00,55.3,32.0,29.40,WNW,284,2.0,15.0,41,0.00,,,0.00,weatherlink.com 1.10,2013-09-26 16:40:00,
2013-09-26 09:55:00,55.8,32.0,29.39,ESE,108,3.0,25.0,40,0.00,,,0.00,weatherlink.com 1.10,2013-09-26 16:55:00,
2013-09-26 10:10:00,56.1,32.0,29.40,SW,236,11.0,23.0,41,0.00,,,0.00,weatherlink.com 1.10,2013-09-26 17:10:00,
2013-09-26 10:25:00,56.8,33.0,29.39,South,180,15.0,22.0,41,0.00,,,0.00,weatherlink.com 1.10,2013-09-26 17:25:00,
2013-09-26 10:40:00,57.4,34.0,29.38,West,267,5.0,23.0,41,0.00,,,0.00,weatherlink.com 1.10,2013-09-26 17:40:00,
2013-09-26 10:55:00,58.1,34.0,29.39,SSW,197,24.0,25.0,41,0.00,,,0.00,weatherlink.com 1.10,2013-09-26 17:55:00,
2013-09-26 11:10:00,58.9,36.0,29.38,WNW,295,5.0,22.0,42,0.00,,,0.00,weatherlink.com 1.10,2013-09-26 18:10:00,
2013-09-26 11:25:00,59.3,35.0,29.38,SE,136,7.0,22.0,41,0.00,,,0.00,weatherlink.com 1.10,2013-09-26 18:25:00,
2013-09-26 11:40:00,59.5,36.0,29.38,SW,222,12.0,22.0,41,0.00,,,0.00,weatherlink.com 1.10,2013-09-26 18:40:00,
2013-09-26 11:55:00,60.2,36.0,29.38,SW,226,8.0,24.0,41,0.00,,,0.00,weatherlink.com 1.10,2013-09-26 18:55:00,
2013-09-26 12:10:00,60.6,37.0,29.38,SSE,148,8.0,25.0,41,0.00,,,0.00,weatherlink.com 1.10,2013-09-26 19:10:00,
2013-09-26 12:25:00,60.5,37.0,29.37,NW,314,8.0,24.0,42,0.00,,,0.00,weatherlink.com 1.10,2013-09-26 19:25:00,
2013-09-26 12:40:00,60.7,37.0,29.37,South,180,10.0,27.0,41,0.00,,,0.00,weatherlink.com 1.10,2013-09-26 19:40:00,
2013-09-26 12:55:00,61.3,37.0,29.35,South,187,7.0,21.0,41,0.00,,,0.00,weatherlink.com 1.10,2013-09-26 19:55:00,
2013-09-26 13:10:00,61.9,39.0,29.36,SW,233,7.0,19.0,43,0.00,,,0.00,weatherlink.com 1.10,2013-09-26 20:10:00,
2013-09-26 13:25:00,62.0,37.0,29.36,SSW,197,7.0,21.0,40,0.00,,,0.00,weatherlink.com 1.10,2013-09-26 20:25:00,
2013-09-26 13:40:00,61.9,37.0,29.35,SSW,204,4.0,24.0,40,0.00,,,0.00,weatherlink.com 1.10,2013-09-26 20:40:00,
2013-09-26 13:55:00,62.6,38.0,29.35,SW,232,5.0,18.0,40,0.00,,,0.00,weatherlink.com 1.10,2013-09-26 20:55:00,
2013-09-26 14:10:00,61.9,38.0,29.35,SSW,207,3.0,22.0,42,0.00,,,0.00,weatherlink.com 1.10,2013-09-26 21:10:00,
2013-09-26 14:25:00,62.3,38.0,29.34,SW,218,10.0,23.0,40,0.00,,,0.00,weatherlink.com 1.10,2013-09-26 21:25:00,
2013-09-26 14:40:00,61.9,37.0,29.35,WSW,248,5.0,22.0,40,0.00,,,0.00,weatherlink.com 1.10,2013-09-26 21:40:00,
2013-09-26 14:55:00,61.7,38.0,29.35,West,281,3.0,23.0,42,0.00,,,0.00,weatherlink.com 1.10,2013-09-26 21:55:00,
2013-09-26 15:10:00,61.9,38.0,29.35,SW,224,11.0,19.0,41,0.00,,,0.00,weatherlink.com 1.10,2013-09-26 22:10:00,
2013-09-26 15:25:00,62.9,38.0,29.34,SW,222,7.0,23.0,40,0.00,,,0.00,weatherlink.com 1.10,2013-09-26 22:25:00,
2013-09-26 15:40:00,62.9,38.0,29.34,West,267,2.0,18.0,40,0.00,,,0.00,weatherlink.com 1.10,2013-09-26 22:40:00,
2013-09-26 15:55:00,63.0,36.0,29.33,SE,143,3.0,20.0,37,0.00,,,0.00,weatherlink.com 1.10,2013-09-26 22:55:00,
2013-09-26 16:10:00,62.4,37.0,29.33,South,169,5.0,24.0,39,0.00,,,0.00,weatherlink.com 1.10,2013-09-26 23:10:00,
2013-09-26 16:25:00,62.7,37.0,29.33,SSW,207,15.0,27.0,38,0.00,,,0.00,weatherlink.com 1.10,2013-09-26 23:25:00,
2013-09-26 16:40:00,62.5,36.0,29.35,WSW,240,12.0,18.0,38,0.00,,,0.00,weatherlink.com 1.10,2013-09-26 23:40:00,
2013-09-26 16:55:00,62.2,36.0,29.33,SW,235,5.0,23.0,38,0.00,,,0.00,weatherlink.com 1.10,2013-09-26 23:55:00,
2013-09-26 17:10:00,62.1,36.0,29.33,SSW,203,2.0,22.0,38,0.00,,,0.00,weatherlink.com 1.10,2013-09-27 00:10:00,
2013-09-26 17:25:00,61.8,36.0,29.32,West,273,4.0,24.0,38,0.00,,,0.00,weatherlink.com 1.10,2013-09-27 00:25:00,
2013-09-26 17:40:00,60.4,36.0,29.34,SSW,203,9.0,22.0,40,0.00,,,0.00,weatherlink.com 1.10,2013-09-27 00:40:00,
2013-09-26 17:55:00,60.0,37.0,29.33,SSW,212,11.0,29.0,43,0.00,,,0.00,weatherlink.com 1.10,2013-09-27 00:55:00,
2013-09-26 18:10:00,59.8,39.0,29.33,WSW,245,6.0,26.0,46,0.00,,,0.00,weatherlink.com 1.10,2013-09-27 01:10:00,
2013-09-26 18:25:00,59.6,40.0,29.33,WSW,248,11.0,26.0,48,0.00,,,0.00,weatherlink.com 1.10,2013-09-27 01:25:00,
2013-09-26 18:40:00,59.4,40.0,29.32,SW,229,23.0,32.0,49,0.00,,,0.00,weatherlink.com 1.10,2013-09-27 01:40:00,
2013-09-26 18:55:00,59.2,40.0,29.33,WNW,294,11.0,22.0,50,0.00,,,0.00,weatherlink.com 1.10,2013-09-27 01:55:00,
2013-09-26 19:10:00,59.1,41.0,29.33,SSW,207,8.0,24.0,52,0.00,,,0.00,weatherlink.com 1.10,2013-09-27 02:10:00,
2013-09-26 19:25:00,58.9,42.0,29.34,SSE,158,7.0,27.0,54,0.00,,,0.00,weatherlink.com 1.10,2013-09-27 02:25:00,
2013-09-26 19:41:00,58.7,43.0,29.34,SSW,197,10.0,30.0,56,0.00,,,0.00,weatherlink.com 1.10,2013-09-27 02:41:00,
2013-09-26 19:56:00,58.5,44.0,29.34,WNW,290,8.0,31.0,58,0.00,,,0.00,weatherlink.com 1.10,2013-09-27 02:56:00,
2013-09-26 20:11:00,58.1,45.0,29.35,WSW,256,9.0,21.0,62,0.00,,,0.00,weatherlink.com 1.10,2013-09-27 03:11:00,
2013-09-26 20:26:00,56.3,47.0,29.35,NW,308,7.0,12.0,70,0.00,,,0.00,weatherlink.com 1.10,2013-09-27 03:26:00,
2013-09-26 20:41:00,55.2,47.0,29.35,West,275,11.0,13.0,74,0.00,,,0.00,weatherlink.com 1.10,2013-09-27 03:41:00,
2013-09-26 20:56:00,54.7,48.0,29.35,West,273,8.0,12.0,77,0.00,,,0.00,weatherlink.com 1.10,2013-09-27 03:56:00,
2013-09-26 21:11:00,54.2,48.0,29.35,SW,228,9.0,14.0,79,0.00,,,0.00,weatherlink.com 1.10,2013-09-27 04:11:00,
2013-09-26 21:26:00,53.6,48.0,29.35,West,260,2.0,15.0,80,0.00,,,0.00,weatherlink.com 1.10,2013-09-27 04:26:00,
2013-09-26 21:41:00,53.2,47.0,29.34,SW,228,10.0,17.0,80,0.00,,,0.00,weatherlink.com 1.10,2013-09-27 04:41:00,
2013-09-26 21:56:00,52.4,47.0,29.35,SW,233,6.0,15.0,82,0.00,,,0.00,weatherlink.com 1.10,2013-09-27 04:56:00,
2013-09-26 22:11:00,52.3,48.0,29.35,WSW,257,4.0,13.0,84,0.00,,,0.00,weatherlink.com 1.10,2013-09-27 05:11:00,
2013-09-26 22:26:00,52.6,49.0,29.35,SW,232,7.0,20.0,86,0.00,,,0.00,weatherlink.com 1.10,2013-09-27 05:26:00,
2013-09-26 22:41:00,52.9,49.0,29.34,WSW,239,10.0,20.0,86,0.00,,,0.00,weatherlink.com 1.10,2013-09-27 05:41:00,
2013-09-26 22:56:00,52.6,49.0,29.34,NNW,330,4.0,21.0,87,0.00,,,0.00,weatherlink.com 1.10,2013-09-27 05:56:00,
2013-09-26 23:11:00,52.3,49.0,29.33,West,270,14.0,17.0,88,0.00,,,0.00,weatherlink.com 1.10,2013-09-27 06:11:00,
2013-09-26 23:26:00,52.2,49.0,29.33,NNE,27,4.0,20.0,89,0.00,,,0.00,weatherlink.com 1.10,2013-09-27 06:26:00,
2013-09-26 23:41:00,52.3,50.0,29.33,SW,225,4.0,20.0,90,0.00,,,0.00,weatherlink.com 1.10,2013-09-27 06:41:00,
2013-09-26 23:56:00,52.2,49.0,29.33,South,170,14.0,18.0,90,0.00,,,0.00,weatherlink.com 1.10,2013-09-27 06:56:00,